FlightSource - Aviation Photo Database

World Wide Airport Lookup


Search by ICAO
Or
Search by City

FlightSource.ca - Aviation Photo Database - Las Vegas Municipal Airport Information
Airport Identification
Name: Las Vegas Municipal Airport
ICAO: KLVS
IATA:
Airport Location
City: Las Vegas
Region: NM
Country: United States
Continent: North America
Latitude: 35.6542
Longitude: -105.142
Airport Information
Type: Medium Airport
Elevation: 6877 Feet ASL
Flight Status: KLVS
More Info: KLVS
Airport Weather    
Metar: KLVS 200653Z AUTO 00000KT 10SM CLR 14/M04 A3001 RMK AO2 SLP054 T01441039 402500089
TAF:


Advertisement